sat.trackr.live / text

‹ back to catalog

STARLINK-3291

NORAD 50175 · 2021-125V

PAYLOAD ACTIVE UNKNOWN

§ Identity

Operator
Country
US
Launch date
2021-12-18
Launch site
AFWTR
Launch vehicle
Mass (kg)
RCS (m²)

Purposes: comms

External: N2YO · Heavens-Above · Gunter

§ Orbital elements

Epoch: 2026-09-09T21:58:23.405952Z

Period
93.79 min
Inclination
53.1632°
Eccentricity
0.0001656
Mean motion
15.35394936 rev/d
Perigee alt
458.6 km
Apogee alt
460.9 km
Semi-major
6,837.9 km
B*
-3.4017e-6
RAAN
133.0405°
Arg perigee
89.5584°
Mean anomaly
270.5608°
Rev number
26,453

§ Raw data

STARLINK-32911 50175U 21125V   26252.91554868 -.00000499  00000+0 -34017-5 0  99952 50175  53.1632 133.0405 0001656  89.5584 270.5608 15.35394936264539

JSON: /api/v1/satellites/50175 · /tle

For live sub-satellite position, see the globe view (requires WebGL).

§ Visibility from observer

Set your observer location to see the next 7 days of passes ≥ 10°. The values pass through the URL so the page stays shareable.

No JS? Fill the form by hand. The geolocation button needs JavaScript.